Location: Unspecified
(41.1850°N, 73.2650°W)
Time: 03:59:16
(UTC+00:00)

UNK - Pass Details

Date: 14 December 2025
Orbit: 654 x 673 km, 98.4° (Epoch: 13 January)

Event Time Altitude Azimuth Distance (km) Brightness Sun altitude
Rises 22:19:49 0° 10° (N) 3,014 6.8 -10.1°
Reaches altitude 10° 22:22:04 10° 8° (N) 2,094 6.0 -10.5°
Maximum altitude 22:26:36 70° 286° (WNW) 708 4.0 -11.3°
Drops below altitude 10° 22:31:05 10° 203° (SSW) 2,066 6.9 -12.1°
Sets 22:33:17 0° 201° (SSW) 2,971 7.7 -12.5°
